Regional Weather Roundup
Issued by NWS

Home | Current Version | Previous Version | Text Only | Print | Product List | Glossary On
Versions: 1 2 3 4 5 6 7 8 9 10 11 12 13 14 15 16 17 18 19 20 21 22 23 24 25 26 27
000
ASPQ40 PGUM 190512
RWRPQ
WEATHER ROUNDUP FOR THE MARIANAS AND MICRONESIA
NATIONAL WEATHER SERVICE TIYAN GU
300 PM CHST SAT AUG 19 2017

GUZ001>004-190600-
MARIANA ISLANDS-

CITY           SKY/WX    TMP DP  RH WIND       PRES   REMARKS
GUAM AIRPORT   SUNNY     81  77  89 S7        29.84F
ANDERSEN AFB   SUNNY     81  73  78 SE7       29.90F
ROTA AIRPORT   LGT RAIN  81  75  83 S12       29.86S
TINIAN AP      PTSUNNY   82  77  83 S7        29.81F HX  91
SAIPAN AP      MOSUNNY   88  75  66 S8        29.82F HX  97

$$

PMZ161-190600-
REPUBLIC OF PALAU-

CITY           SKY/WX    TMP DP  RH WIND       PRES   REMARKS
KOROR AP       CLOUDY    86  75  70 W7        29.78F HX  95
KOROR WSO      PTSUNNY   86  77  74 NW6       29.78F HX  97

$$

PMZ171>174-190600-
FEDERATED STATES OF MICRONESIA-

CITY           SKY/WX    TMP DP  RH WIND       PRES   REMARKS
YAP AIRPORT    LGT RAIN  75  73  94 S8        29.79R
CHUUK AP       LGT RAIN  81  77  89 VRB3      29.77F
POHNPEI AP     NOT AVBL
POHNPEI WSO    CLOUDY    81  77  89 VRB5      29.79F
KOSRAE AP      NOT AVBL

$$

PMZ181-190600-
REPUBLIC OF THE MARSHALL ISLANDS-

CITY           SKY/WX    TMP DP  RH WIND       PRES   REMARKS
KWAJALEIN AP   MOSUNNY   88  75  66 E10       29.74R HX  97
MAJURO AP      NOT AVBL
MAJURO WSO     PTSUNNY   86  77  74 CALM      29.73R HX  97

$$





USA.gov is the U.S. government's official web portal to all federal, state and local government web resources and services.